Location: *
(58.4167°N, 22.5000°E)
Time: 07:09:05
(UTC+00:00)

Cosmos 1603 - Pass Details

Date: 22 September 2019
Orbit: 831 x 860 km, 71.0° (Epoch: 20 October)

Event Time Altitude Azimuth Distance (km) Brightness Sun altitude
Rises 19:09:10 0° 322° (NW) 3,408 8.3 -20.2°
Reaches altitude 10° 19:11:37 10° 320° (NW) 2,474 7.3 -20.4°
Maximum altitude 19:17:13 64° 240° (WSW) 942 4.0 -21.0°
Enters shadow 19:19:41 34° 172° (S) 1,378 4.4 -21.3°
